Regional Weather Roundup
Issued by NWS

Home | Current Version | Previous Version | Text Only | Print | Product List | Glossary Off
Versions: 1 2 3 4 5 6 7 8 9 10 11 12 13 14 15 16 17 18 19 20 21 22 23 24 25 26 27 28 29 30 31 32 33 34 35 36 37 38 39 40 41 42 43 44 45 46 47 48 49 50

000
ASUS43 KLOT 270302
RWRIL

ILLINOIS REGIONAL WEATHER ROUNDUP
NATIONAL WEATHER SERVICE CHICAGO/ROMEOVILLE IL
1000 PM CDT THU MAR 26 2015

NOTE: "FAIR" INDICATES FEW OR NO CLOUDS BELOW 12,000 FEET WITH NO
SIGNIFICANT WEATHER AND/OR OBSTRUCTIONS TO VISIBILITY.

* THESE STATIONS ARE NOT UNDER NWS QUALITY CONTROL. THEY ALSO MAY NOT
  REPORT WEATHER SUCH AS PRECIPITATION OR FOG.

ILZ001-002-007-009-015-016-024-270400-
NORTHWEST ILLINOIS

CITY           SKY/WX    TMP DP  RH WIND       PRES   REMARKS
MOLINE         CLEAR     32  20  61 NW8       30.11R WCI  25
STERLING*      CLOUDY    34  21  60 NW8       30.09S WCI  27
$$

ILZ003-004-008-010-011-017-018-270400-
NORTH CENTRAL ILLINOIS

CITY           SKY/WX    TMP DP  RH WIND       PRES   REMARKS
ROCKFORD       CLOUDY    34  21  59 NE17      30.09R WCI  23
FREEPORT*      CLOUDY    32  20  61 N8        30.09R WCI  25
$$

ILZ005-006-012>014-019>023-270400-
NORTHEAST ILLINOIS

CITY           SKY/WX    TMP DP  RH WIND       PRES   REMARKS
CHICAGO-OHARE  CLOUDY    34  22  61 N14       30.05R WCI  25
CHICAGO-MIDWAY FLURRIES  38  20  48 NW10      30.05R WCI  31
AURORA         CLOUDY    34  22  61 NW3       30.06R
LANSING*       CLOUDY    36  24  62 NE7       30.05S WCI  30
WAUKEGAN       CLOUDY    31  18  58 NW9       30.06R WCI  23
DUPAGE AIRPORT CLOUDY    34  21  59 NW7       30.05R WCI  28
WHEELING       CLOUDY    33  19  56 N14G20    30.08R WCI  23
NORTHERLY ISL    N/A     34  26  73 N15         N/A  WCI  24
$$

LMZ740>746-270400-
SOUTHERN LAKE MICHIGAN

STATION/POSITION SKY/WX   TEMP    WIND        PRES    VSBY  WAVE
                          AIR SEA DIR/SP/G                  HT/PER
                          (F)     (DEG/KT/KT) (MB)    (MI)  (FT/S)
HARRISON CRIB              35      10/ 15/ 17   N/A
BURNHAM HARBOR             36     340/  9/ 13   N/A
CALUMET HARBOR             36     350/  9/ 12 1016.2R
BURNS HARBOR               35      20/ 10/ 12 1017.6R
MICHIGAN CITY              33     350/ 12/ 12   N/A
$$

ILZ025>027-034>036-040-047-049-050-058-095>099-270400-
WEST-CENTRAL ILLINOIS

CITY           SKY/WX    TMP DP  RH WIND       PRES   REMARKS
QUINCY         CLOUDY    41  26  55 N9        30.08R
$$

ILZ028>032-037-038-041>044-048-051>054-059>061-270400-
CENTRAL ILLINOIS

CITY           SKY/WX    TMP DP  RH WIND       PRES   REMARKS
DECATUR        CLEAR     37  24  59 N8        30.04S WCI  31
PEORIA         FAIR      37  23  56 N8        30.08R WCI  31
LINCOLN*       CLEAR     38  27  64 NW3       30.07R
SPRINGFIELD    MOCLDY    43  25  49 N13       30.06S
TAYLORVILLE    NOT AVBL
$$

ILZ033-039-045-046-055>057-062-063-270400-
EAST-CENTRAL ILLINOIS

CITY           SKY/WX    TMP DP  RH WIND       PRES   REMARKS
CHAMPAIGN      CLEAR     35  27  72 NE6       30.03S WCI  30
DANVILLE*      CLEAR     31  27  84 N6        30.01S WCI  26
MATTOON        CLEAR     34  29  82 NW6       30.03S WCI  29
$$

ILZ079-100>102-270400-
SOUTHWEST ILLINOIS

CITY           SKY/WX    TMP DP  RH WIND       PRES   REMARKS
BELLEVILLE     CLEAR     39  29  68 N3        30.06S
CAHOKIA*       CLEAR     40  27  59 CALM      30.07S
$$

ILZ064>066-069>071-074>076-080>082-084>086-088>090-092>094-270400-
SOUTH-CENTRAL ILLINOIS

CITY           SKY/WX    TMP DP  RH WIND       PRES   REMARKS
CARBONDALE     CLEAR     38  31  76 CALM      30.05F
MT. VERNON     CLEAR     34  27  75 CALM      30.05F
SALEM*         CLEAR     42  30  63 NW5       30.05F
$$

ILZ067-068-072-073-078-083-087-091-270400-
SOUTHEAST ILLINOIS

CITY           SKY/WX    TMP DP  RH WIND       PRES   REMARKS
LAWRENCEVILLE  CLEAR     38  31  76 NW5       30.04R WCI  34
HARRISBURG*    CLEAR     38  33  83 CALM      30.06S
ROBINSON*      CLEAR     38  32  79 CALM      30.05R
$$

ABBREVIATIONS USED IN REMARKS
   TC - TEMPERATURE IN CELSIUS
  WCI - WIND CHILL INDEX
   HX - HEAT INDEX
  VSB - VISIBILITY
$$



USA.gov is the U.S. government's official web portal to all federal, state and local government web resources and services.